User: anonymous   Login
Location: Unspecified
(0.0000°N, 0.0000°E)
Time: 08:51:23
(UTC+00:00)
Language:

SICH 2 - Orbit

View from above orbital plane
View from above orbital plane
View from above satellite
View from above satellite

Ground track
Ground track

The orbit data is extracted from the following two-line orbital elements,

1 37794U 11044G   24104.91435375  .00001001  00000-0  20201-3 0  9998
2 37794  97.7924 114.9450 0012792 165.2182 257.9169 14.63376486675195
Epoch (UTC): 13 April 2024 21:56:40
Eccentricity: 0.0012792
inclination: 97.7924°
perigee height: 673 km
apogee height: 691 km
right ascension of ascending node: 114.9450°
argument of perigee: 165.2182°
revolutions per day: 14.63376486
mean anomaly at epoch: 257.9169°
orbit number at epoch: 67519

The dashed part of the orbit path shows where the satellite is in the earth's shadow,  

DLR